{"data":{"norad_id":31121,"epoch":"2026-05-25T04:07:05.217024Z","epoch_age_seconds":67059,"freshness":"FRESH","line1":"1 31121U 07012E   26145.17158816  .00000608  00000+0  12551-3 0  9993","line2":"2 31121  98.4084 112.2629 0072699  39.3065 321.3382 14.62522088 16822","mean_motion":14.62522088,"eccentricity":0.0072699,"inclination_deg":98.4084,"raan_deg":112.2629,"arg_perigee_deg":39.3065,"mean_anomaly_deg":321.3382,"bstar":0.00012551,"rev_number":1682,"period_min":98.460051428639,"perigee_km":633.69349503855,"apogee_km":736.39070652812,"semimajor_km":7063.1791007833,"source":"CELESTRAK","updated_at":"2026-05-25T13:37:55.096077Z"}}